TimeEST,TemperatureF,Dew PointF,Humidity,Sea Level PressureIn,VisibilityMPH,Wind Direction,Wind SpeedMPH,Gust SpeedMPH,PrecipitationIn,Events,Conditions,WindDirDegrees,DateUTC
12:15 AM,44.6,42.8,93,30.30,10.0,Calm,Calm,-,N/A,,Clear,0,2013-01-06 05:15:00
12:35 AM,44.6,42.8,93,30.29,10.0,Calm,Calm,-,N/A,,Clear,0,2013-01-06 05:35:00
12:55 AM,44.6,42.8,93,30.28,10.0,Calm,Calm,-,N/A,,Clear,0,2013-01-06 05:55:00
1:15 AM,44.6,42.8,93,30.27,10.0,Calm,Calm,-,N/A,,Clear,0,2013-01-06 06:15:00
1:35 AM,44.6,44.6,100,30.27,10.0,Calm,Calm,-,N/A,,Partly Cloudy,0,2013-01-06 06:35:00
1:55 AM,44.6,44.6,100,30.26,10.0,Calm,Calm,-,N/A,,Clear,0,2013-01-06 06:55:00
2:15 AM,44.6,44.6,100,30.26,10.0,Calm,Calm,-,N/A,,Clear,0,2013-01-06 07:15:00
2:35 AM,44.6,44.6,100,30.26,10.0,Calm,Calm,-,N/A,,Clear,0,2013-01-06 07:35:00
2:55 AM,44.6,44.6,100,30.25,10.0,Calm,Calm,-,N/A,,Scattered Clouds,0,2013-01-06 07:55:00
3:15 AM,44.6,44.6,100,30.24,10.0,Calm,Calm,-,N/A,,Mostly Cloudy,0,2013-01-06 08:15:00
3:35 AM,46.4,44.6,93,30.23,9.0,Calm,Calm,-,N/A,,Partly Cloudy,0,2013-01-06 08:35:00
3:55 AM,46.4,44.6,93,30.23,10.0,Calm,Calm,-,N/A,,Light Drizzle,0,2013-01-06 08:55:00
4:15 AM,46.4,44.6,93,30.22,8.0,Calm,Calm,-,N/A,,Light Drizzle,0,2013-01-06 09:15:00
4:35 AM,46.4,44.6,93,30.22,8.0,Calm,Calm,-,N/A,,Partly Cloudy,0,2013-01-06 09:35:00
4:55 AM,46.4,44.6,93,30.20,9.0,Calm,Calm,-,N/A,,Partly Cloudy,0,2013-01-06 09:55:00
5:15 AM,46.4,44.6,93,30.20,10.0,Calm,Calm,-,N/A,,Scattered Clouds,0,2013-01-06 10:15:00
5:35 AM,46.4,44.6,93,30.21,10.0,Calm,Calm,-,N/A,,Mostly Cloudy,0,2013-01-06 10:35:00
5:55 AM,46.4,44.6,93,30.20,10.0,Calm,Calm,-,N/A,,Scattered Clouds,0,2013-01-06 10:55:00
6:15 AM,46.4,44.6,93,30.21,10.0,Calm,Calm,-,N/A,,Scattered Clouds,0,2013-01-06 11:15:00
6:35 AM,46.4,44.6,93,30.21,10.0,Calm,Calm,-,N/A,,Mostly Cloudy,0,2013-01-06 11:35:00
6:55 AM,46.4,44.6,93,30.21,10.0,Calm,Calm,-,N/A,,Mostly Cloudy,0,2013-01-06 11:55:00
7:15 AM,46.4,44.6,93,30.22,10.0,Calm,Calm,-,N/A,,Mostly Cloudy,0,2013-01-06 12:15:00
7:35 AM,46.4,44.6,93,30.22,10.0,Calm,Calm,-,N/A,,Partly Cloudy,0,2013-01-06 12:35:00
7:55 AM,46.4,44.6,93,30.22,10.0,Calm,Calm,-,N/A,,Scattered Clouds,0,2013-01-06 12:55:00
8:15 AM,46.4,44.6,93,30.23,10.0,Calm,Calm,-,N/A,,Mostly Cloudy,0,2013-01-06 13:15:00
8:35 AM,48.2,44.6,87,30.23,10.0,Calm,Calm,-,N/A,,Scattered Clouds,0,2013-01-06 13:35:00
8:55 AM,48.2,46.4,93,30.22,10.0,Calm,Calm,-,N/A,,Mostly Cloudy,0,2013-01-06 13:55:00
9:15 AM,50.0,44.6,82,30.24,10.0,Calm,Calm,-,N/A,,Overcast,0,2013-01-06 14:15:00
9:35 AM,51.8,44.6,76,30.25,10.0,Calm,Calm,-,N/A,,Overcast,0,2013-01-06 14:35:00
9:55 AM,51.8,44.6,76,30.24,10.0,Calm,Calm,-,N/A,,Overcast,0,2013-01-06 14:55:00
10:35 AM,51.8,46.4,82,30.24,10.0,Calm,Calm,-,N/A,,Overcast,0,2013-01-06 15:35:00
10:55 AM,53.6,46.4,77,30.23,10.0,Calm,Calm,-,N/A,,Mostly Cloudy,0,2013-01-06 15:55:00
11:15 AM,53.6,46.4,77,30.22,10.0,Calm,Calm,-,N/A,,Mostly Cloudy,0,2013-01-06 16:15:00
11:35 AM,53.6,46.4,77,30.21,10.0,Calm,Calm,-,N/A,,Mostly Cloudy,0,2013-01-06 16:35:00
11:55 AM,53.6,46.4,77,30.20,10.0,Calm,Calm,-,N/A,,Mostly Cloudy,0,2013-01-06 16:55:00
12:15 PM,53.6,46.4,77,30.19,10.0,NW,3.5,-,N/A,,Overcast,320,2013-01-06 17:15:00
12:35 PM,55.4,46.4,72,30.18,10.0,Calm,Calm,-,N/A,,Overcast,0,2013-01-06 17:35:00
12:55 PM,55.4,46.4,72,30.17,10.0,Calm,Calm,-,N/A,,Overcast,0,2013-01-06 17:55:00
1:15 PM,55.4,46.4,72,30.16,9.0,Calm,Calm,-,N/A,,Overcast,0,2013-01-06 18:15:00
1:35 PM,55.4,46.4,72,30.16,10.0,Calm,Calm,-,N/A,,Overcast,0,2013-01-06 18:35:00
1:55 PM,55.4,46.4,72,30.15,10.0,NNW,4.6,-,N/A,,Overcast,340,2013-01-06 18:55:00
2:15 PM,55.4,44.6,67,30.14,10.0,NW,3.5,-,N/A,,Overcast,320,2013-01-06 19:15:00
2:35 PM,55.4,42.8,63,30.14,10.0,NW,3.5,-,N/A,,Overcast,310,2013-01-06 19:35:00
2:55 PM,53.6,44.6,72,30.14,8.0,NNW,5.8,-,N/A,Rain,Light Rain,330,2013-01-06 19:55:00
3:15 PM,51.8,48.2,88,30.15,3.0,Calm,Calm,-,0.01,Rain,Light Rain,0,2013-01-06 20:15:00
3:55 PM,48.2,46.4,93,30.14,1.0,Calm,Calm,-,0.08,,Light Drizzle,0,2013-01-06 20:55:00
4:15 PM,48.2,46.4,93,30.14,7.0,SSW,4.6,-,N/A,,Overcast,200,2013-01-06 21:15:00
4:35 PM,48.2,46.4,93,30.14,5.0,Calm,Calm,-,N/A,Rain,Light Rain,0,2013-01-06 21:35:00
4:55 PM,48.2,46.4,93,30.13,5.0,Calm,Calm,-,0.01,,Light Drizzle,0,2013-01-06 21:55:00
5:15 PM,48.2,46.4,93,30.13,8.0,Calm,Calm,-,N/A,,Overcast,0,2013-01-06 22:15:00
5:55 PM,48.2,48.2,100,30.13,5.0,Calm,Calm,-,N/A,,Overcast,0,2013-01-06 22:55:00
6:15 PM,48.2,48.2,100,30.13,9.0,Calm,Calm,-,N/A,,Overcast,0,2013-01-06 23:15:00
6:35 PM,48.2,48.2,100,30.13,8.0,Calm,Calm,-,N/A,,Mostly Cloudy,0,2013-01-06 23:35:00
6:55 PM,48.2,48.2,100,30.13,8.0,Calm,Calm,-,N/A,,Scattered Clouds,0,2013-01-06 23:55:00
7:15 PM,48.2,48.2,100,30.13,9.0,Calm,Calm,-,N/A,,Mostly Cloudy,0,2013-01-07 00:15:00
7:35 PM,48.2,48.2,100,30.13,10.0,Calm,Calm,-,N/A,,Scattered Clouds,0,2013-01-07 00:35:00
7:55 PM,48.2,48.2,100,30.12,10.0,Calm,Calm,-,N/A,,Mostly Cloudy,0,2013-01-07 00:55:00
8:35 PM,50.0,48.2,94,30.13,9.0,WSW,3.5,-,N/A,,Mostly Cloudy,240,2013-01-07 01:35:00
8:55 PM,50.0,46.4,87,30.14,10.0,WSW,3.5,-,N/A,,Mostly Cloudy,250,2013-01-07 01:55:00
9:15 PM,50.0,46.4,87,30.14,10.0,Calm,Calm,-,N/A,,Mostly Cloudy,0,2013-01-07 02:15:00
9:55 PM,50.0,46.4,87,30.16,10.0,Calm,Calm,-,N/A,,Mostly Cloudy,0,2013-01-07 02:55:00
10:55 PM,50.0,46.4,87,30.16,10.0,WNW,5.8,-,N/A,,Scattered Clouds,300,2013-01-07 03:55:00
11:15 PM,50.0,44.6,82,30.18,10.0,WNW,6.9,-,N/A,,Scattered Clouds,300,2013-01-07 04:15:00
11:35 PM,51.8,44.6,76,30.17,10.0,NW,5.8,-,N/A,,Overcast,310,2013-01-07 04:35:00
11:55 PM,51.8,44.6,76,30.18,10.0,NW,3.5,-,N/A,,Overcast,310,2013-01-07 04:55:00